Location: Chippewa Lake
(41.0698°N, 81.9010°W)
Time: 00:44:51
(UTC+00:00)

Meteor 1-22 Rocket - Pass Details

Date: 09 May 2021
Orbit: 789 x 939 km, 81.2° (Epoch: 24 June)

Event Time Altitude Azimuth Distance (km) Brightness Sun altitude
Rises 06:49:47 0° 349° (N) 3,530 8.2 -28.2°
Reaches altitude 10° 06:52:13 10° 349° (NNW) 2,604 7.4 -28.0°
Maximum altitude 06:58:12 83° 263° (W) 940 4.2 -27.6°
Enters shadow 06:58:33 78° 210° (SSW) 951 4.2 -27.5°
